This is the latest recevied weather packets stored in our database for station/object N2RDT. If no packets are shown the sender has not sent any weather packets the latest 10 day(s).
| Time | Temp. | Humidity | Pressure | Rain* | Wind** | Luminosity | Snow |
|---|---|---|---|---|---|---|---|
| 1777406948 | 20° C | 60% | 1018.7 hPa | 0 mm | - | 342 W/m² | - |
| 1777406648 | 20.56° C | 58% | 1018.6 hPa | 0 mm | - | 322 W/m² | - |
| 1777406344 | 20° C | 57% | 1018.9 hPa | 0 mm | - | 585 W/m² | - |
| 1777406043 | 20° C | 57% | 1018.9 hPa | 0 mm | - | 331 W/m² | - |
| 1777405740 | 19.44° C | 57% | 1019 hPa | 0 mm | - | 1003 W/m² | - |
| 1777405436 | 20° C | 57% | 1018.9 hPa | 0 mm | - | 452 W/m² | - |
| 1777405133 | 20° C | 56% | 1019.1 hPa | 0 mm | - | 429 W/m² | - |
| 1777404832 | 20° C | 55% | 1019 hPa | 0 mm | - | 388 W/m² | - |
| 1777404529 | 20.56° C | 54% | 1019.2 hPa | 0 mm | - | 381 W/m² | - |
| 1777404224 | 20° C | 54% | 1019.1 hPa | 0 mm | - | 1077 W/m² | - |
| 1777403921 | 20° C | 53% | 1019.4 hPa | 0 mm | - | 1130 W/m² | - |
| 1777403620 | 20° C | 56% | 1019.3 hPa | 0 mm | - | 851 W/m² | - |
| 1777403315 | 20° C | 52% | 1019.2 hPa | 0 mm | - | 460 W/m² | - |
| 1777403010 | 20° C | 53% | 1019.1 hPa | 0 mm | - | 549 W/m² | - |
| 1777402706 | 20° C | 52% | 1019.5 hPa | 0 mm | - | 729 W/m² | - |
| 1777402406 | 20° C | 53% | 1019.7 hPa | 0 mm | - | 459 W/m² | - |
| 1777402104 | 20.56° C | 51% | 1019.4 hPa | 0 mm | - | 597 W/m² | - |
| 1777401800 | 20° C | 51% | 1019.5 hPa | 0 mm | - | 842 W/m² | - |
| 1777401499 | 18.89° C | 54% | 1019.4 hPa | 0 mm | - | 565 W/m² | - |
| 1777401195 | 18.89° C | 54% | 1019.7 hPa | 0 mm | - | 565 W/m² | - |
| 1777400891 | 18.89° C | 54% | 1019.6 hPa | 0 mm | - | 565 W/m² | - |
| 1777400587 | 18.89° C | 54% | 1019.9 hPa | 0 mm | - | 565 W/m² | - |
| 1777400285 | 18.89° C | 52% | 1019.9 hPa | 0 mm | - | 516 W/m² | - |
| 1777399981 | 18.89° C | 53% | 1020 hPa | 0 mm | - | 525 W/m² | - |
| 1777399677 | 19.44° C | 49% | 1020.1 hPa | 0 mm | - | 630 W/m² | - |
* Rain latest hour (hover to see other rain measurements)
** Current wind speed in m/s (hover to see current wind gust speed)